FW4606 Weather Reports


Display with metric or nautical units.
time (UTC)temp
F
wind
direction
speed
MPH
gust
MPH
rain 1hr
in
rain 24hr
in
rain mn
in
humidity
%
barometer
mb
20260510073018 33 15 0.0 0.0 0.00 0.04 0.00 89 1015.7
20260510072517 33 15 0.0 0.0 0.00 0.04 0.00 88 1015.8
20260510072247 33 15 0.0 0.0 0.00 0.04 0.00 88 1015.8
20260510071746 33 15 0.0 0.0 0.00 0.04 0.00 87 1015.8
20260510071013 34 15 0.0 0.0 0.00 0.04 0.00 86 1015.8
20260510070514 34 15 0.0 0.0 0.00 0.04 0.00 85 1015.8
20260510070016 34 15 0.0 0.0 0.00 0.04 0.00 86 1015.8
20260510065517 35 15 0.0 0.0 0.00 0.04 0.00 86 1015.8
20260510065015 35 15 0.0 0.0 0.00 0.04 0.00 85 1015.7
20260510064512 35 15 0.0 0.0 0.00 0.04 0.00 86 1015.7
20260510064009 35 15 0.0 0.0 0.00 0.04 0.00 86 1015.7
20260510063740 35 15 0.0 0.0 0.00 0.04 0.00 85 1015.7
20260510063010 35 14 0.0 0.0 0.00 0.04 0.00 86 1015.7
20260510062506 35 15 0.0 0.0 0.00 0.04 0.00 84 1015.6
20260510062004 36 15 0.0 0.0 0.00 0.04 0.00 84 1015.7
20260510061509 37 15 0.0 0.0 0.00 0.04 0.00 83 1015.6
20260510061504 36 15 0.0 0.0 0.00 0.04 0.00 83 1015.7
20260510060505 37 15 0.0 0.0 0.00 0.04 0.00 82 1015.6
20260510060005 38 15 0.0 0.0 0.00 0.04 0.00 81 1015.6
20260510055504 38 15 0.0 0.0 0.00 0.04 0.00 81 1015.6
20260510055005 38 15 0.0 0.0 0.00 0.04 0.00 79 1015.5
20260510054506 39 14 0.0 0.0 0.00 0.04 0.00 77 1015.5
20260510054001 39 15 0.0 0.0 0.00 0.04 0.00 74 1015.4
20260510053500 39 15 0.0 0.0 0.00 0.04 0.00 74 1015.4
20260510053233 39 14 0.0 0.0 0.00 0.04 0.00 75 1015.4
20260510052501 38 15 0.0 0.0 0.00 0.04 0.00 75 1015.4
20260510052001 38 15 0.0 0.0 0.00 0.04 0.00 74 1015.4
20260510051731 38 15 0.0 0.0 0.00 0.04 0.00 74 1015.4
20260510051002 38 15 0.0 0.0 0.00 0.04 0.00 74 1015.4
20260510050731 38 15 0.0 0.0 0.00 0.04 0.00 70 1015.4
20260510050232 39 15 0.0 0.0 0.00 0.04 0.00 67 1015.3
20260510045456 39 15 0.0 0.0 0.00 0.04 0.04 66 1015.2
20260510044950 40 15 0.0 0.0 0.00 0.04 0.04 65 1015.2
20260510044443 41 15 0.0 0.0 0.00 0.04 0.04 64 1015.2
20260510043938 42 15 0.0 0.0 0.00 0.04 0.04 64 1015.2
20260510043432 42 15 0.0 0.0 0.00 0.04 0.04 64 1015.2
20260510042926 43 15 0.0 0.0 0.00 0.04 0.04 63 1015.1
20260510042420 43 15 0.0 0.0 0.00 0.04 0.04 61 1015.1
20260510042144 43 15 0.0 0.0 0.00 0.04 0.04 62 1015.1
20260510041408 42 15 0.0 0.0 0.00 0.04 0.04 62 1015.1
20260510040901 42 15 0.0 0.0 0.00 0.04 0.04 61 1015.0
20260510040356 43 15 0.0 0.0 0.00 0.04 0.04 60 1015.1
20260510035850 43 14 0.0 0.0 0.00 0.04 0.04 61 1015.1
20260510035343 44 15 0.0 0.0 0.00 0.04 0.04 58 1015.1
20260510034837 44 15 0.0 0.0 0.00 0.04 0.04 58 1015.1
20260510034332 45 15 0.0 0.0 0.00 0.04 0.04 56 1015.0
20260510034057 46 15 0.0 0.0 0.00 0.04 0.04 55 1015.0
20260510033320 47 15 0.0 0.0 0.00 0.04 0.04 52 1015.0
20260510032814 47 15 0.0 0.0 0.00 0.04 0.04 51 1014.9
20260510032308 48 15 0.0 0.0 0.00 0.04 0.04 50 1014.8
20260510032034 48 15 0.0 0.0 0.00 0.04 0.04 50 1014.7
20260510031526 48 15 0.0 0.0 0.00 0.04 0.04 50 1014.7
20260510030750 48 16 0.0 0.0 0.00 0.04 0.04 51 1014.6
20260510030244 48 19 0.0 0.0 0.00 0.04 0.04 50 1014.5
20260510030010 48 20 0.0 1.0 0.00 0.04 0.04 51 1014.4
20260510025232 48 20 0.0 1.0 0.00 0.04 0.04 50 1014.3
20260510024725 47 20 0.0 0.0 0.00 0.04 0.04 51 1014.2
20260510024219 46 72 0.0 0.0 0.00 0.04 0.04 52 1014.1
20260510023714 47 72 0.0 0.0 0.00 0.04 0.04 52 1014.0
20260510023208 47 72 0.0 0.0 0.00 0.04 0.04 52 1013.8
20260510022701 47 72 0.0 0.0 0.00 0.04 0.04 53 1013.6
20260510022156 47 72 0.0 0.0 0.00 0.04 0.04 51 1013.5
20260510021650 48 72 0.0 0.0 0.00 0.04 0.04 51 1013.4
20260510021144 48 72 0.0 0.0 0.00 0.04 0.04 51 1013.4
20260510020638 49 126 0.0 0.0 0.00 0.04 0.04 50 1013.1
20260510020132 49 125 0.0 0.0 0.00 0.04 0.04 47 1013.0
20260510015625 50 126 0.0 1.0 0.00 0.04 0.04 45 1012.9
20260510015120 51 231 0.0 1.0 0.00 0.04 0.04 44 1012.8
20260510014614 52 105 0.0 1.0 0.00 0.04 0.04 44 1012.7
20260510014338 53 126 0.0 1.0 0.00 0.04 0.04 42 1012.6
20260510013833 53 125 0.0 1.0 0.00 0.04 0.04 41 1012.5
20260510013056 54 3 0.0 1.0 0.00 0.04 0.04 39 1012.4
20260510012821 54 11 0.0 1.0 0.00 0.04 0.04 38 1012.4
20260510012050 55 18 0.0 3.0 0.00 0.04 0.04 38 1012.3
20260510011547 55 34 0.0 3.0 0.00 0.04 0.04 37 1012.1
20260510011047 55 339 0.0 2.0 0.00 0.04 0.04 39 1012.1
20260510010818 55 150 0.0 3.0 0.00 0.04 0.04 37 1012.0
20260510010048 55 132 0.0 4.0 0.00 0.04 0.04 38 1012.0
20260510005548 56 210 0.0 5.0 0.00 0.04 0.04 39 1011.9
20260510005047 56 155 0.0 8.0 0.00 0.04 0.04 36 1011.8
20260510004547 57 304 0.0 8.0 0.00 0.04 0.04 38 1011.7
20260510004319 57 122 0.0 4.0 0.00 0.04 0.04 38 1011.7
20260510003818 58 136 1.0 4.0 0.00 0.04 0.04 37 1011.6
20260510003318 58 288 1.0 4.0 0.00 0.04 0.04 35 1011.6
20260510002547 59 0 1.0 6.0 0.00 0.04 0.04 36 1011.5
20260510002047 59 158 1.0 6.0 0.00 0.04 0.04 35 1011.4
20260510001547 60 124 1.0 5.0 0.00 0.04 0.04 35 1011.5
20260510001047 60 49 1.0 7.0 0.00 0.04 0.04 34 1011.4
20260510000547 60 141 1.0 7.0 0.00 0.04 0.04 33 1011.2
20260510000319 60 106 1.0 7.0 0.00 0.04 0.04 33 1011.1
20260509235543 60 4 1.0 6.0 0.00 0.04 0.04 31 1011.2
20260509235036 61 80 1.0 6.0 0.00 0.04 0.04 30 1011.1
20260509234531 61 318 0.0 4.0 0.00 0.04 0.04 30 1011.1
20260509234255 62 5 0.0 6.0 0.00 0.04 0.04 31 1011.0
20260509233518 62 13 1.0 6.0 0.00 0.04 0.04 29 1011.0
20260509233244 62 23 1.0 4.0 0.00 0.04 0.04 29 1010.9
20260509232506 62 41 1.0 4.0 0.00 0.04 0.04 29 1010.9
20260509232232 62 66 1.0 4.0 0.00 0.04 0.04 33 1010.8
20260509231457 62 7 1.0 6.0 0.00 0.04 0.04 30 1010.7
20260509231451 61 97 1.0 6.0 0.00 0.04 0.04 31 1010.7
20260509230442 62 5 1.0 10.0 0.00 0.04 0.04 32 1010.8
20260509225936 63 309 1.0 10.0 0.00 0.04 0.04 31 1010.5
20260509225430 62 351 1.0 6.0 0.00 0.04 0.04 31 1010.7
20260509224923 62 339 1.0 6.0 0.00 0.04 0.04 29 1010.6
20260509224418 63 224 1.0 6.0 0.00 0.04 0.04 29 1010.7
20260509223912 62 239 1.0 5.0 0.00 0.04 0.04 33 1010.5
20260509223407 62 22 1.0 6.0 0.00 0.04 0.04 31 1010.5
20260509222900 62 125 1.0 6.0 0.00 0.04 0.04 32 1010.5
20260509222353 63 110 1.0 6.0 0.00 0.04 0.04 29 1010.5
20260509221848 63 117 1.0 6.0 0.00 0.04 0.04 32 1010.5
20260509221613 64 25 1.0 8.0 0.00 0.04 0.04 32 1010.5
20260509220835 64 120 1.0 8.0 0.00 0.04 0.04 34 1010.4
20260509220330 64 27 1.0 6.0 0.00 0.04 0.04 32 1010.4
20260509215824 63 224 1.0 5.0 0.00 0.04 0.04 35 1010.2
20260509215318 63 126 1.0 5.0 0.00 0.04 0.04 31 1010.3
20260509214812 63 160 2.0 7.0 0.00 0.04 0.04 37 1010.3
20260509214305 64 54 2.0 7.0 0.00 0.04 0.04 31 1010.3
20260509213759 64 139 1.0 5.0 0.00 0.04 0.04 31 1010.2
20260509213255 64 169 1.0 5.0 0.00 0.04 0.04 33 1010.2
20260509213250 63 4 1.0 6.0 0.00 0.04 0.04 30 1010.2
20260509212242 63 333 1.0 6.0 0.00 0.04 0.04 29 1010.1
20260509211735 65 1 1.0 6.0 0.00 0.04 0.04 30 1010.1
20260509211230 64 166 1.0 6.0 0.00 0.04 0.04 30 1010.1
20260509210724 64 259 1.0 8.0 0.00 0.04 0.04 32 1010.1
20260509210218 63 5 1.0 8.0 0.00 0.04 0.04 32 1010.0
20260509205711 63 100 1.0 8.0 0.00 0.04 0.04 31 1010.1
20260509205206 62 139 2.0 8.0 0.00 0.04 0.04 31 1009.9
20260509204702 63 345 1.0 7.0 0.00 0.04 0.04 30 1009.8
20260509204657 62 13 1.0 9.0 0.00 0.04 0.04 31 1009.9
20260509203918 63 162 1.0 9.0 0.00 0.04 0.04 31 1009.9
20260509203142 63 347 1.0 6.0 0.00 0.04 0.04 33 1009.8
20260509202636 63 333 1.0 6.0 0.00 0.04 0.04 32 1009.8
20260509202130 63 5 1.0 6.0 0.00 0.04 0.04 34 1009.7
20260509201624 62 329 1.0 4.0 0.00 0.04 0.04 35 1009.8
20260509201118 61 323 1.0 9.0 0.00 0.04 0.04 31 1009.6
20260509200612 62 351 2.0 9.0 0.00 0.04 0.04 34 1009.7
20260509200105 62 32 3.0 8.0 0.00 0.04 0.04 31 1009.7
20260509195600 63 149 3.0 9.0 0.00 0.04 0.04 31 1009.7
20260509195054 63 195 2.0 9.0 0.00 0.04 0.04 36 1009.5
20260509194548 62 162 1.0 7.0 0.00 0.04 0.04 38 1009.6
20260509194041 62 7 1.0 6.0 0.00 0.04 0.04 32 1009.5
20260509193536 63 89 1.0 6.0 0.00 0.04 0.04 33 1009.5
20260509193030 62 276 1.0 6.0 0.00 0.04 0.04 36 1009.2
20260509192524 62 333 1.0 6.0 0.00 0.04 0.04 38 1009.5
20260509192018 61 1 3.0 9.0 0.00 0.04 0.04 33 1009.2
20260509191515 61 333 2.0 9.0 0.00 0.04 0.04 33 1009.2
20260509191507 62 345 2.0 8.0 0.00 0.04 0.04 35 1009.1
20260509190731 62 113 2.0 8.0 0.00 0.04 0.04 38 1009.1
20260509185953 62 158 1.0 9.0 0.00 0.04 0.04 43 1009.2
20260509185448 62 104 2.0 9.0 0.00 0.04 0.04 34 1009.1
20260509184942 62 29 2.0 8.0 0.00 0.04 0.04 34 1009.0
20260509184436 62 207 1.0 8.0 0.00 0.04 0.04 36 1009.0
20260509183930 61 153 1.0 6.0 0.00 0.04 0.04 37 1008.9
20260509183424 61 339 1.0 7.0 0.00 0.04 0.04 36 1008.9
20260509182918 61 335 1.0 9.0 0.00 0.04 0.04 37 1008.9
20260509182643 61 8 2.0 9.0 0.00 0.04 0.04 35 1008.8
20260509181906 61 0 3.0 9.0 0.00 0.04 0.04 39 1008.9
20260509181632 61 221 2.0 9.0 0.00 0.04 0.04 41 1008.6
20260509180854 61 302 1.0 8.0 0.00 0.04 0.04 41 1008.8
20260509180347 60 347 1.0 5.0 0.00 0.04 0.04 42 1008.9
20260509175842 60 345 2.0 6.0 0.00 0.04 0.04 43 1008.9
20260509175336 60 78 2.0 7.0 0.00 0.04 0.04 39 1008.9
20260509175102 60 0 2.0 8.0 0.00 0.04 0.04 41 1008.8
20260509174324 60 122 1.0 8.0 0.00 0.04 0.04 44 1008.6
20260509173818 60 330 1.0 7.0 0.00 0.04 0.04 44 1008.7
20260509173312 59 197 1.0 7.0 0.00 0.04 0.04 46 1008.6
20260509173043 59 86 1.0 7.0 0.00 0.04 0.04 43 1008.6
20260509172545 59 17 1.0 7.0 0.00 0.04 0.04 40 1008.6
20260509171813 59 343 1.0 6.0 0.00 0.04 0.04 49 1008.6
20260509171312 58 149 1.0 5.0 0.00 0.04 0.04 48 1008.5
20260509170811 58 302 1.0 6.0 0.00 0.04 0.04 50 1008.5
20260509170308 58 80 1.0 8.0 0.00 0.04 0.04 48 1008.3
20260509165809 57 106 1.0 8.0 0.00 0.04 0.04 49 1008.3
20260509165540 58 339 1.0 6.0 0.00 0.04 0.04 46 1008.3
20260509164809 58 352 1.0 5.0 0.00 0.04 0.04 45 1008.3
20260509164542 57 22 1.0 4.0 0.00 0.04 0.04 50 1008.3
20260509163810 57 25 1.0 4.0 0.00 0.04 0.04 45 1008.3
20260509163309 56 27 1.0 5.0 0.00 0.04 0.04 47 1008.2
20260509162811 56 14 1.0 5.0 0.00 0.04 0.04 50 1008.1
20260509162312 56 43 1.0 6.0 0.00 0.04 0.04 48 1008.1
20260509161811 56 340 1.0 6.0 0.00 0.04 0.04 54 1008.0
20260509161544 55 135 1.0 5.0 0.00 0.04 0.04 52 1008.0
20260509160807 55 66 1.0 6.0 0.00 0.04 0.04 53 1008.0
20260509160532 56 4 1.0 6.0 0.00 0.04 0.04 53 1007.8
20260509155754 56 351 1.0 5.0 0.00 0.04 0.04 50 1007.7
20260509155249 56 91 1.0 5.0 0.00 0.04 0.04 57 1007.7
20260509154742 56 131 1.0 5.0 0.00 0.04 0.04 53 1007.6
20260509154237 56 311 1.0 4.0 0.00 0.04 0.04 56 1007.5
20260509154001 56 105 1.0 6.0 0.00 0.04 0.04 54 1007.4
20260509153458 56 356 1.0 8.0 0.00 0.04 0.04 52 1007.4
20260509152719 57 9 1.0 8.0 0.00 0.04 0.04 55 1007.3
20260509152213 56 133 1.0 5.0 0.00 0.04 0.04 59 1007.3
20260509151707 56 325 1.0 5.0 0.00 0.04 0.04 60 1007.2
20260509151438 55 105 1.0 4.0 0.00 0.04 0.04 62 1007.0
20260509151201 55 342 1.0 4.0 0.00 0.04 0.04 63 1007.0
20260509150148 54 27 1.0 7.0 0.00 0.04 0.04 62 1006.9
20260509145642 54 181 1.0 7.0 0.00 0.04 0.04 60 1006.9
20260509145137 54 58 1.0 4.0 0.00 0.04 0.04 64 1006.7
20260509144631 53 345 1.0 4.0 0.00 0.04 0.04 64 1006.7
20260509144355 53 356 1.0 5.0 0.00 0.04 0.04 65 1006.7
20260509143850 53 345 1.0 5.0 0.00 0.04 0.04 66 1006.6
20260509143113 52 20 1.0 4.0 0.00 0.04 0.04 68 1006.6
20260509142607 52 345 1.0 6.0 0.00 0.04 0.04 71 1006.5
20260509142100 51 356 2.0 6.0 0.00 0.04 0.04 71 1006.5
20260509141825 51 9 2.0 7.0 0.00 0.04 0.04 72 1006.4
20260509141046 50 356 2.0 8.0 0.00 0.04 0.04 75 1006.4
20260509140540 50 347 2.0 8.0 0.00 0.04 0.04 77 1006.4
20260509140039 50 13 2.0 7.0 0.00 0.04 0.04 80 1006.4
20260509135538 49 356 1.0 6.0 0.00 0.04 0.04 84 1006.3
20260509135041 49 13 1.0 4.0 0.00 0.04 0.04 91 1006.2
20260509134539 48 347 1.0 4.0 0.00 0.04 0.04 94 1006.2
20260509134039 48 352 1.0 4.0 0.00 0.04 0.04 96 1006.1
20260509133540 48 337 1.0 4.0 0.00 0.04 0.04 96 1006.1
20260509133039 48 74 0.0 4.0 0.00 0.04 0.04 96 1006.0
20260509132808 48 23 0.0 2.0 0.00 0.04 0.04 96 1006.0
20260509132659 47 32 0.0 3.0 0.00 0.04 0.04 96 1005.9
20260509131534 47 105 0.0 3.0 0.00 0.04 0.04 96 1005.8
20260509131032 47 110 0.0 3.0 0.00 0.04 0.04 96 1005.7
20260509130530 47 107 0.0 1.0 0.00 0.04 0.04 97 1005.5
20260509130032 47 351 0.0 1.0 0.00 0.04 0.04 97 1005.4
20260509125529 47 107 0.0 1.0 0.00 0.04 0.04 96 1005.3
20260509125031 47 127 0.0 1.0 0.00 0.04 0.04 96 1005.3
20260509124530 47 56 0.0 1.0 0.00 0.04 0.04 96 1005.2
20260509124028 47 100 0.0 1.0 0.00 0.04 0.04 97 1005.2
20260509123528 47 205 0.0 2.0 0.00 0.04 0.04 97 1005.2
20260509123022 47 293 0.0 2.0 0.00 0.04 0.04 97 1005.1
20260509122516 47 23 0.0 1.0 0.00 0.04 0.04 97 1005.0
20260509122009 47 75 0.0 1.0 0.00 0.04 0.04 97 1004.8
20260509121504 47 116 0.0 2.0 0.00 0.04 0.04 96 1004.8
20260509120958 46 75 0.0 2.0 0.00 0.04 0.04 96 1004.7
20260509120454 46 114 0.0 3.0 0.00 0.04 0.04 96 1004.7
20260509115954 46 131 0.0 3.0 0.00 0.04 0.04 96 1004.6
20260509115723 47 160 0.0 3.0 0.00 0.04 0.04 96 1004.5
20260509115227 47 142 0.0 2.0 0.00 0.04 0.04 96 1004.4
20260509114454 47 162 0.0 2.0 0.00 0.04 0.04 96 1004.2
20260509113953 47 96 0.0 1.0 0.00 0.04 0.04 96 1004.2
20260509113454 46 155 0.0 1.0 0.00 0.04 0.04 96 1004.1
20260509112954 46 162 0.0 0.0 0.00 0.04 0.04 96 1004.0
20260509112457 46 162 0.0 0.0 0.01 0.04 0.04 96 1003.8
20260509112452 46 162 0.0 0.0 0.00 0.04 0.04 96 1003.9
20260509111454 46 162 0.0 0.0 0.01 0.04 0.04 95 1003.7
20260509110957 46 63 0.0 0.0 0.01 0.04 0.04 95 1003.5
20260509110451 46 62 0.0 0.0 0.02 0.04 0.04 95 1003.4
20260509105952 46 62 0.0 0.0 0.02 0.04 0.04 95 1003.3
20260509105452 47 64 0.0 0.0 0.02 0.04 0.04 95 1003.1
20260509105224 47 64 0.0 0.0 0.02 0.04 0.04 95 1003.1
20260509104451 47 63 0.0 0.0 0.02 0.04 0.04 95 1003.1
20260509103950 47 64 0.0 0.0 0.02 0.04 0.04 95 1003.1
20260509103452 47 63 0.0 0.0 0.03 0.04 0.04 95 1003.0
20260509102950 47 64 0.0 0.0 0.03 0.04 0.04 94 1002.9
20260509102450 47 63 0.0 0.0 0.03 0.04 0.04 94 1002.6
20260509101952 47 64 0.0 0.0 0.03 0.03 0.03 94 1003.0
20260509101720 47 315 0.0 0.0 0.03 0.03 0.03 94 1002.6
20260509100948 47 315 0.0 0.0 0.02 0.02 0.02 93 1002.7
20260509100722 47 314 0.0 0.0 0.02 0.02 0.02 93 1002.8
20260509095949 48 315 0.0 0.0 0.02 0.02 0.02 92 1002.7
20260509095449 48 314 0.0 0.0 0.02 0.02 0.02 92 1002.7
20260509094948 48 315 0.0 1.0 0.02 0.02 0.02 91 1002.6
20260509094719 48 315 0.0 1.0 0.02 0.02 0.02 90 1002.6
20260509093950 49 136 0.0 1.0 0.02 0.02 0.02 89 1002.7
20260509093450 49 140 0.0 1.0 0.01 0.01 0.01 86 1002.9
20260509093215 50 57 0.0 1.0 0.01 0.01 0.01 84 1003.0
20260509092445 50 68 0.0 4.0 0.01 0.01 0.01 82 1003.1
20260509091945 51 79 0.0 4.0 0.00 0.00 0.00 77 1003.2
20260509091445 52 1 0.0 2.0 0.00 0.00 0.00 73 1003.2
20260509090945 52 351 0.0 1.0 0.00 0.00 0.00 70 1003.1
20260509090446 52 16 0.0 1.0 0.00 0.00 0.00 67 1003.1
20260509085944 52 15 0.0 1.0 0.00 0.00 0.00 65 1002.8
20260509085444 52 15 0.0 1.0 0.00 0.00 0.00 64 1002.5
20260509084946 53 17 0.0 1.0 0.00 0.00 0.00 62 1002.6
20260509084442 53 18 0.0 2.0 0.00 0.00 0.00 62 1002.7
20260509083941 53 338 0.0 2.0 0.00 0.00 0.00 61 1002.8
20260509083712 53 50 0.0 2.0 0.00 0.00 0.00 60 1002.7
20260509082940 53 16 1.0 7.0 0.00 0.00 0.00 59 1002.7
20260509082440 53 25 1.0 7.0 0.00 0.00 0.00 59 1002.7
20260509081940 52 6 1.0 6.0 0.00 0.00 0.00 59 1002.7
20260509081442 52 39 1.0 6.0 0.00 0.00 0.00 60 1002.6
20260509080942 51 30 0.0 3.0 0.00 0.00 0.00 60 1002.6
20260509080442 50 321 0.0 4.0 0.00 0.00 0.00 60 1002.5
20260509075940 50 118 0.0 4.0 0.00 0.00 0.00 61 1002.5
20260509075440 49 187 0.0 1.0 0.00 0.00 0.00 61 1002.5
20260509074950 49 135 0.0 2.0 0.00 0.00 0.00 60 1002.4
20260509074941 49 136 0.0 1.0 0.00 0.00 0.00 62 1002.5
20260509073942 49 205 0.0 2.0 0.00 0.00 0.00 59 1002.2
20260509073440 49 126 0.0 2.0 0.00 0.00 0.00 61 1002.2